When you browse on this site, cookies collect data to enhance your experience and personalize the content and advertising you see.
Visit our Privacy Policy to learn more. By continuing to use the site, you agree to this use of cookies and data.
  • In Spain
  • List of Countries
  • For 7 days
  • Water Temperature
  • Weather Map
  • Weather Widgets
  • user-avatar
    Login

    Hourly Weather Escaldes-Engordany

    Today, 10 December, Tuesday

    Time Temperature Precipitation Wind Pressure Humidity
    00:00 -3°C° 0 mm 4 mps 641 mmHg 91%
    01:00 -3°C° 0.3 mm 4 mps 641 mmHg 90%
    02:00 -3°C° 0.3 mm 4 mps 641 mmHg 90%
    03:00 -3°C° 0.3 mm 4 mps 640 mmHg 89%
    04:00 -4°C° 0.1 mm 4 mps 640 mmHg 87%
    05:00 -4°C° 0.1 mm 4 mps 640 mmHg 86%
    06:00 -5°C° 0.1 mm 4 mps 640 mmHg 84%
    07:00 -3°C° 0 mm 4 mps 641 mmHg 74%
    08:00 -2°C° 0 mm 4 mps 641 mmHg 63%
    09:00 0°C° 0 mm 3 mps 641 mmHg 53%
    10:00 +2°C° 0 mm 3 mps 642 mmHg 53%
    11:00 +4°C° 0 mm 3 mps 642 mmHg 53%
    12:00 +7°C° 0 mm 2 mps 643 mmHg 52%
    13:00 +6°C° 0 mm 2 mps 642 mmHg 55%
    14:00 +6°C° 0 mm 2 mps 641 mmHg 58%
    15:00 +6°C° 0 mm 1 mps 641 mmHg 60%
    16:00 +4°C° 0 mm 2 mps 640 mmHg 56%
    17:00 +3°C° 0 mm 2 mps 640 mmHg 52%
    18:00 +1°C° 0 mm 2 mps 639 mmHg 47%
    19:00 +1°C° 0 mm 2 mps 639 mmHg 44%
    20:00 +1°C° 0 mm 2 mps 639 mmHg 41%
    21:00 +2°C° 0 mm 2 mps 639 mmHg 38%
    22:00 +2°C° 0 mm 2 mps 639 mmHg 38%
    23:00 +2°C° 0 mm 2 mps 639 mmHg 38%

    Tomorrow, 11 December, Wednesday

    Time Temperature Precipitation Wind Pressure Humidity
    00:00 +3°C° 0 mm 1 mps 639 mmHg 38%
    01:00 +3°C° 0 mm 1 mps 638 mmHg 39%
    02:00 +3°C° 0 mm 1 mps 638 mmHg 41%
    03:00 +3°C° 0 mm 1 mps 637 mmHg 42%
    04:00 +2°C° 0 mm 2 mps 637 mmHg 45%
    05:00 +2°C° 0 mm 2 mps 637 mmHg 48%
    06:00 +1°C° 0 mm 2 mps 637 mmHg 52%
    07:00 +3°C° 0 mm 1 mps 637 mmHg 58%
    08:00 +4°C° 0 mm 1 mps 637 mmHg 63%
    09:00 +5°C° 0 mm 1 mps 638 mmHg 69%
    10:00 +5°C° 0.2 mm 1 mps 638 mmHg 72%
    11:00 +5°C° 0.2 mm 1 mps 638 mmHg 74%
    12:00 +4°C° 0.2 mm 2 mps 638 mmHg 77%
    13:00 +4°C° 0.4 mm 2 mps 638 mmHg 79%
    14:00 +3°C° 0.4 mm 2 mps 637 mmHg 81%
    15:00 +3°C° 0.4 mm 2 mps 637 mmHg 83%
    16:00 +1°C° 0.1 mm 2 mps 636 mmHg 85%
    17:00 -1°C° 0.1 mm 2 mps 636 mmHg 88%
    18:00 -3°C° 0.1 mm 2 mps 636 mmHg 90%
    19:00 -3°C° 0 mm 2 mps 635 mmHg 86%
    20:00 -4°C° 0 mm 2 mps 635 mmHg 82%
    21:00 -4°C° 0 mm 2 mps 635 mmHg 78%
    22:00 -4°C° 0.3 mm 2 mps 635 mmHg 82%
    23:00 -3°C° 0.3 mm 2 mps 635 mmHg 85%

    Day after tomorrow, 12 December, Thursday

    Time Temperature Precipitation Wind Pressure Humidity
    00:00 -3°C° 0.3 mm 2 mps 635 mmHg 88%
    01:00 -3°C° 0.3 mm 2 mps 635 mmHg 89%
    02:00 -3°C° 0.3 mm 2 mps 635 mmHg 90%
    03:00 -3°C° 0.3 mm 2 mps 634 mmHg 91%
    04:00 -3°C° 0.2 mm 2 mps 634 mmHg 90%
    05:00 -1°C° 0.2 mm 1 mps 634 mmHg 89%
    06:00 -1°C° 0.2 mm 1 mps 634 mmHg 88%
    07:00 0°C° 0.1 mm 1 mps 634 mmHg 85%
    08:00 +1°C° 0.1 mm 1 mps 634 mmHg 82%
    09:00 +1°C° 0.1 mm 1 mps 635 mmHg 79%
    10:00 +2°C° 0 mm 1 mps 635 mmHg 76%
    11:00 +3°C° 0 mm 1 mps 635 mmHg 73%
    12:00 +4°C° 0 mm 1 mps 634 mmHg 70%
    13:00 +4°C° 0 mm 1 mps 634 mmHg 73%
    14:00 +3°C° 0 mm 1 mps 633 mmHg 77%
    15:00 +3°C° 0 mm 1 mps 632 mmHg 80%
    16:00 +1°C° 0 mm 2 mps 631 mmHg 85%
    17:00 -1°C° 0 mm 2 mps 630 mmHg 89%
    18:00 -2°C° 0 mm 3 mps 629 mmHg 94%
    19:00 -2°C° 0.9 mm 2 mps 629 mmHg 94%
    20:00 -1°C° 0.9 mm 2 mps 628 mmHg 95%
    21:00 -1°C° 0.9 mm 2 mps 628 mmHg 95%
    22:00 -1°C° 1.4 mm 2 mps 627 mmHg 95%
    23:00 -1°C° 1.4 mm 2 mps 627 mmHg 96%

    13 December, Friday

    Time Temperature Precipitation Wind Pressure Humidity
    00:00 +1°C° 1.4 mm 2 mps 627 mmHg 96%
    01:00 +1°C° 1.2 mm 2 mps 626 mmHg 96%
    02:00 +1°C° 1.2 mm 2 mps 626 mmHg 97%
    03:00 +2°C° 1.2 mm 1 mps 626 mmHg 97%
    04:00 +2°C° 1.4 mm 1 mps 625 mmHg 97%
    05:00 +2°C° 1.4 mm 1 mps 625 mmHg 98%
    06:00 +2°C° 1.4 mm 1 mps 625 mmHg 98%
    07:00 +3°C° 2.8 mm 1 mps 625 mmHg 98%
    08:00 +3°C° 2.8 mm 1 mps 625 mmHg 98%
    09:00 +3°C° 2.8 mm 1 mps 625 mmHg 98%
    10:00 +3°C° 3.4 mm 1 mps 625 mmHg 98%
    11:00 +2°C° 3.4 mm 2 mps 626 mmHg 98%
    12:00 +2°C° 3.4 mm 2 mps 626 mmHg 98%
    13:00 +2°C° 2.6 mm 2 mps 626 mmHg 98%
    14:00 +3°C° 2.6 mm 2 mps 626 mmHg 98%
    15:00 +2°C° 2.6 mm 3 mps 627 mmHg 98%
    16:00 +1°C° 2.1 mm 3 mps 627 mmHg 98%
    17:00 +1°C° 2.1 mm 3 mps 628 mmHg 98%
    18:00 +1°C° 2.1 mm 3 mps 629 mmHg 98%
    19:00 +1°C° 1.9 mm 3 mps 629 mmHg 98%
    20:00 +2°C° 1.9 mm 2 mps 630 mmHg 99%
    21:00 +2°C° 1.9 mm 2 mps 630 mmHg 99%
    22:00 +3°C° 1.3 mm 2 mps 631 mmHg 99%
    23:00 +3°C° 1.3 mm 2 mps 631 mmHg 98%

    14 December, Saturday

    Time Temperature Precipitation Wind Pressure Humidity
    00:00 +3°C° 1.3 mm 2 mps 631 mmHg 98%
    01:00 +3°C° 0.1 mm 2 mps 631 mmHg 98%
    02:00 +3°C° 0.1 mm 2 mps 632 mmHg 98%
    03:00 +3°C° 0.1 mm 2 mps 632 mmHg 97%
    04:00 +3°C° 0 mm 2 mps 632 mmHg 96%
    05:00 +2°C° 0 mm 2 mps 632 mmHg 95%
    06:00 +2°C° 0 mm 2 mps 632 mmHg 94%
    07:00 +3°C° 0 mm 2 mps 633 mmHg 93%
    08:00 +3°C° 0 mm 2 mps 634 mmHg 93%
    09:00 +5°C° 0 mm 1 mps 634 mmHg 93%
    10:00 +6°C° 0 mm 1 mps 635 mmHg 92%
    11:00 +7°C° 0 mm 1 mps 635 mmHg 91%
    12:00 +7°C° 0 mm 0 mps 635 mmHg 91%
    13:00 +6°C° 0 mm 0 mps 635 mmHg 91%
    14:00 +6°C° 0 mm 0 mps 635 mmHg 92%
    15:00 +6°C° 0 mm 1 mps 635 mmHg 93%
    16:00 +5°C° 0 mm 1 mps 634 mmHg 92%
    17:00 +4°C° 0 mm 1 mps 634 mmHg 90%
    18:00 +3°C° 0 mm 1 mps 634 mmHg 89%
    19:00 +3°C° 0 mm 1 mps 634 mmHg 91%
    20:00 +3°C° 0 mm 1 mps 634 mmHg 92%
    21:00 +3°C° 0 mm 1 mps 634 mmHg 93%
    22:00 +3°C° 0 mm 1 mps 634 mmHg 94%
    23:00 +2°C° 0 mm 2 mps 634 mmHg 94%

    15 December, Sunday

    Time Temperature Precipitation Wind Pressure Humidity
    00:00 +2°C° 0 mm 2 mps 634 mmHg 94%
    01:00 +2°C° 0 mm 2 mps 634 mmHg 92%
    02:00 +1°C° 0 mm 2 mps 633 mmHg 90%
    03:00 +1°C° 0 mm 2 mps 633 mmHg 88%
    04:00 +1°C° 0 mm 2 mps 633 mmHg 85%
    05:00 -1°C° 0 mm 2 mps 632 mmHg 82%
    06:00 +1°C° 0 mm 1 mps 632 mmHg 78%
    07:00 +2°C° 0 mm 1 mps 633 mmHg 78%
    08:00 +3°C° 0 mm 1 mps 634 mmHg 78%
    09:00 +4°C° 0 mm 1 mps 634 mmHg 78%
    10:00 +5°C° 0 mm 1 mps 635 mmHg 80%
    11:00 +5°C° 0 mm 0 mps 635 mmHg 82%
    12:00 +6°C° 0 mm 0 mps 635 mmHg 85%
    13:00 +6°C° 0 mm 0 mps 635 mmHg 86%
    14:00 +6°C° 0 mm 1 mps 634 mmHg 88%
    15:00 +6°C° 0 mm 1 mps 634 mmHg 90%
    16:00 +5°C° 0 mm 1 mps 634 mmHg 90%
    17:00 +4°C° 0 mm 1 mps 633 mmHg 91%
    18:00 +2°C° 0 mm 1 mps 633 mmHg 91%
    19:00 +2°C° 0 mm 1 mps 633 mmHg 91%
    20:00 +1°C° 0 mm 2 mps 633 mmHg 90%
    21:00 +1°C° 0 mm 2 mps 633 mmHg 90%
    22:00 +1°C° 0 mm 2 mps 633 mmHg 89%
    23:00 +1°C° 0 mm 2 mps 632 mmHg 88%
    Show more